KD9BEW Weather Reports


time (UTC)temp
C
wind
direction
speed
KPH
gust
KPH
rain 1hr
cm
rain 24hr
cm
rain mn
cm
humidity
%
barometer
mb
20260503030057 13 181 6.4 14.5 0.00 0.00 0.00 46 1008.1
20260503024554 13 151 3.2 11.3 0.00 0.00 0.00 45 1008.1
20260503023056 13 143 4.8 14.5 0.00 0.00 0.00 45 1008.3
20260503021555 13 0 1.6 4.8 0.00 0.00 0.00 45 1008.3
20260503020100 13 163 1.6 3.2 0.00 0.00 0.00 44 1008.4
20260503014559 13 142 0.0 6.4 0.00 0.00 0.00 43 1008.3
20260503013053 14 134 1.6 6.4 0.00 0.00 0.00 42 1008.5
20260503011606 14 156 0.0 6.4 0.00 0.00 0.00 41 1008.5
20260503010100 15 121 3.2 6.4 0.00 0.00 0.00 41 1008.6
20260503004601 15 209 1.6 9.7 0.00 0.00 0.00 40 1008.8
20260503003103 15 148 1.6 6.4 0.00 0.00 0.00 39 1008.9
20260503001555 15 164 3.2 12.9 0.00 0.00 0.00 39 1009.1
20260503000108 15 196 1.6 12.9 0.00 0.00 0.00 38 1009.3
20260502234554 15 294 3.2 11.3 0.00 0.00 0.00 39 1009.4
20260502233054 16 169 3.2 17.7 0.00 0.00 0.00 39 1009.6
20260502231617 15 0 6.4 17.7 0.00 0.00 0.00 37 1009.8
20260502230056 15 148 4.8 17.7 0.00 0.00 0.00 36 1009.8
20260502224559 16 133 3.2 9.7 0.00 0.00 0.00 35 1009.9
20260502223055 16 294 1.6 12.9 0.00 0.00 0.00 34 1010.0
20260502221554 16 149 1.6 11.3 0.00 0.00 0.00 31 1010.1
20260502220055 16 0 0.0 8.0 0.00 0.00 0.00 33 1010.4
20260502214556 16 142 3.2 14.5 0.00 0.00 0.00 33 1010.5
20260502213054 16 273 4.8 14.5 0.00 0.00 0.00 32 1010.7
20260502211600 15 141 3.2 19.3 0.00 0.00 0.00 33 1010.8
20260502210057 16 230 3.2 12.9 0.00 0.00 0.00 30 1011.0
20260502204555 16 253 1.6 14.5 0.00 0.00 0.00 30 1011.3
20260502203058 17 142 3.2 16.1 0.00 0.00 0.00 29 1011.3
20260502201604 17 157 8.0 16.1 0.00 0.00 0.00 28 1011.5
20260502200055 17 128 3.2 12.9 0.00 0.00 0.00 27 1011.7
20260502194606 17 161 3.2 14.5 0.00 0.00 0.00 28 1012.0
20260502193108 16 76 1.6 12.9 0.00 0.00 0.00 27 1012.2
20260502191606 16 164 3.2 11.3 0.00 0.00 0.00 30 1012.5
20260502190054 16 230 4.8 17.7 0.00 0.00 0.00 30 1013.0
20260502184605 16 176 3.2 16.1 0.00 0.00 0.00 29 1013.2
20260502183056 16 18 0.0 16.1 0.00 0.00 0.00 31 1013.4
20260502181558 15 5 3.2 17.7 0.00 0.00 0.00 31 1013.6
20260502163056 13 264 3.2 11.3 0.00 0.00 0.00 34 1015.3
20260502161624 13 202 3.2 12.9 0.00 0.00 0.00 32 1015.5
20260502160125 13 28 3.2 9.7 0.00 0.00 0.00 36 1015.6
20260502151605 12 286 3.2 9.7 0.00 0.00 0.00 35 1016.1
20260502130116 5 221 3.2 14.5 0.00 0.00 0.00 56 1017.2
20260502123122 3 194 4.8 12.9 0.00 0.00 0.00 58 1017.3
20260502121604 3 169 3.2 11.3 0.00 0.00 0.00 60 1017.2
20260502120117 2 113 3.2 9.7 0.00 0.00 0.00 61 1017.2
20260502114558 2 188 1.6 8.0 0.00 0.00 0.00 63 1017.2
20260502113057 1 157 0.0 3.2 0.00 0.00 0.00 66 1017.2
20260502111556 1 148 0.0 4.8 0.00 0.00 0.00 67 1017.2
20260502110057 1 161 1.6 4.8 0.00 0.00 0.00 68 1017.1
20260502104557 0 156 0.0 1.6 0.00 0.00 0.00 69 1017.2
20260502103053 1 165 0.0 4.8 0.00 0.00 0.00 68 1017.2
20260502101603 1 148 1.6 3.2 0.00 0.00 0.00 68 1017.3
20260502070059 0 0 0.0 0.0 0.00 0.00 0.00 79 1018.0
20260502064559 -1 0 0.0 0.0 0.00 0.00 0.00 80 1018.0
20260502063101 0 0 0.0 0.0 0.00 0.00 0.00 79 1018.1
20260502061559 0 0 0.0 0.0 0.00 0.00 0.00 78 1018.1
20260502060116 0 0 0.0 1.6 0.00 0.00 0.00 78 1018.1
20260502054555 0 0 0.0 0.0 0.00 0.00 0.00 79 1018.2
20260502053059 0 0 0.0 0.0 0.00 0.00 0.00 78 1018.2
20260502051602 0 0 0.0 1.6 0.00 0.00 0.00 76 1018.2
20260502050055 0 155 1.6 3.2 0.00 0.00 0.00 76 1018.2
20260502044601 0 145 1.6 3.2 0.00 0.00 0.00 76 1018.3
20260502043154 0 144 1.6 3.2 0.00 0.00 0.00 78 1018.2
20260502041558 0 0 0.0 0.0 0.00 0.00 0.00 78 1018.3
20260502040105 0 0 0.0 1.6 0.00 0.00 0.00 77 1018.4
20260502034602 1 157 0.0 3.2 0.00 0.00 0.00 75 1018.3
20260502033106 1 157 1.6 3.2 0.00 0.00 0.00 72 1018.3
20260502031554 1 159 1.6 3.2 0.00 0.00 0.00 73 1018.3